COSMOS 249 DEB

基本信息
目录编号:
3695
目录名称:
COSMOS 249 DEB
国际标识:
1968-091AL
轨道中心:
EARTH
物体状态:
在轨
发射日期:
1968-10-20 UTC
轨道信息
数据来源: 国际轨道数据
星历时间: 2026-07-12T17:46:56+0800
半长轴: 7611.03km
偏心率: 0.0641879
轨道倾角: 62.240°
近地点辐角: 242.199°
升交点赤经: 186.664°
平近点角: 111.254°
近地点: 744.356km
远地点: 1721.43km
周期: 110.135分钟
每日圈数: 13.074878
详细信息
发射场:
TTMTR
轨道高度:
LEO
数据来源:
AOE Integration Group
参考系:
TEME
时间系统:
UTC
历元类型:
SGP4
2D轨道图
3D轨道图
轨道高度分析图
轨道倾角分析图
轨道综合分析图
查看轨道综合分析图